Regional Weather Roundup
Issued by NWS Albany, NY

Home | Current Version | Previous Version | Text Only | Print | Product List | Glossary On
Versions: 1 2 3 4 5 6 7 8 9 10 11 12 13 14 15 16 17 18 19 20 21 22 23 24 25 26 27
000
ASUS41 KALY 190310
RWRALY

NEW YORK STATE HOURLY WEATHER ROUNDUP
NATIONAL WEATHER SERVICE ALBANY NY
1000 PM EST SAT FEB 18 2017

NOTE: "FAIR" INDICATES FEW OR NO CLOUDS BELOW 12,000 FEET WITH NO
SIGNIFICANT WEATHER AND/OR NO OBSTRUCTIONS TO VISIBILITY.

NYZ032-033-038>043-046>054-057>066-NYZ062>081-082-084-190400-
EAST


CITY           SKY/WX    TMP DP  RH WIND       PRES   REMARKS
ALBANY         CLEAR     42  29  59 N7        29.62R
GLENS FALLS    CLEAR     45  29  53 S10       29.55F
POUGHKEEPSIE   CLEAR     35  30  82 N3        29.62S
NEWBURGH       PTCLDY    54  34  47 W7        29.64S
MONTGOMERY     CLEAR     44  32  62 SW7       29.62S
WHITE PLAINS   CLOUDY    48  31  51 S3        29.64F
ISLIP          CLOUDY    45  38  76 SW8       29.66F
NEW YORK CITY  MOCLDY    60  32  34 SW12      29.67S
CENTRAL PARK   PTCLDY    60  31  33 W12G23    29.69S
$$

NYZ005>009-017-018-044>046-055-056-190400-
CENTRAL


CITY           SKY/WX    TMP DP  RH WIND       PRES   REMARKS
FULTON         CLEAR     47  35  63 SW6       29.64R
SYRACUSE       CLEAR     45  35  68 SW10      29.64S
ROME           CLEAR     32  31  96 CALM      29.65R
ELMIRA         CLEAR     32  27  81 W5        29.69R WCI  27
BINGHAMTON     CLEAR     49  31  49 W12       29.66R
MONTICELLO     CLEAR     45  30  57 W8        29.66S
$$

NYZ026>034-041>043-087-190400-
NORTH


CITY           SKY/WX    TMP DP  RH WIND       PRES   REMARKS
WATERTOWN      CLEAR     42  36  79 SW9       29.61R
FORT DRUM      NOT AVBL
OGDENSBURG     FAIR      43  36  76 SW9       29.55R
MASSENA        CLEAR     45  35  68 SW14      29.53R
SARANAC LAKE   CLEAR     42  35  76 SW10      29.52R
PLATTSBURGH    CLEAR     50  35  56 SW9       29.48R
$$

NYZ001>004-010>016-019>021-085-190400-
WEST


CITY           SKY/WX    TMP DP  RH WIND       PRES   REMARKS
NIAGARA FALLS  CLEAR     40  33  76 S3        29.67S
BUFFALO        PTCLDY    39  34  82 SW12      29.69R WCI  32
DUNKIRK        CLEAR     52  39  61 SW14      29.71S
JAMESTOWN        N/A     48  36  61 SW9       29.73S
WELLSVILLE     CLEAR     53  36  52 W13G25    29.72R
ROCHESTER      CLEAR     48  38  68 W12       29.66R
PENN YAN       CLEAR     53  35  50 SW16      29.68R
$$

             KEY
       WCI = WIND CHILL INDEX
       VSB = VISIBILITY
       HX  = HEAT INDEX
$$




USA.gov is the U.S. government's official web portal to all federal, state and local government web resources and services.